Weather History for Peru, IN

Change the Weather History Date:

Wednesday, May 7, 2014

  Actual Average Record
Temperature  
Mean Temperature 68 °F -  
Max Temperature 85 °F 68 °F 85 °F (2014)
Min Temperature 51 °F 50 °F 42 °F (2007)
Cooling Degree Days 3    
Growing Degree Days 18 (Base 50)    
Moisture  
Dew Point 52 °F    
Average Humidity 56    
Maximum Humidity 72    
Minimum Humidity 42    
Precipitation  
Precipitation 0.00 in - - ()
Sea Level Pressure  
Sea Level Pressure 29.89 in    
Wind  
Wind Speed 12 mph (SE)    
Max Wind Speed 16 mph    
Max Gust Speed 23 mph    
Visibility 10 miles    
Events      
Averages and records for this station are not official NWS values.
T = Trace of Precipitation, MM = Missing Value Source: NWS Daily Summary

Daily Weather History Graph

Daily Weather History Graph

Search for Another Location

Airport:

Trip Planner

Search our weather history database for the weather conditions in past years. The results will help you decide how hot, cold, wet, or windy it might be!

Date:

Astronomy

May. 07, 2014 Rise Set
Actual Time 6:36 AM EDT 8:46 PM EDT
Civil Twilight 6:05 AM EDT 9:17 PM EDT
Nautical Twilight 5:28 AM EDT 9:54 PM EDT
Astronomical Twilight 4:48 AM EDT 10:35 PM EDT
Moon 1:49 PM EDT (5/7) 2:37 AM EDT (5/7)
Length of Visible Light 15h 11m
Length of Day
14h 10m
First Quarter, 55% of the Moon is Illuminated
May 7
First Quarter
May 14
Full
May 21
Last Quarter
May 28
New
Jun 5
First Quarter

Hourly Weather History & Observations

Time (EDT) Temp. Heat Index Dew Point Humidity Pressure Visibility Wind Dir Wind Speed Gust Speed Precip Events Conditions
12:58 AM 54.5 °F - 36.5 °F 51% 29.92 in 10.0 mi East 16.1 mph 23.0 mph N/A   Clear
1:58 AM 53.1 °F - 36.0 °F 52% 29.92 in 10.0 mi East 15.0 mph - N/A   Partly Cloudy
2:58 AM 52.7 °F - 37.0 °F 55% 29.92 in 10.0 mi East 15.0 mph - N/A   Mostly Cloudy
3:58 AM 52.2 °F - 38.1 °F 59% 29.89 in 10.0 mi East 12.7 mph - N/A   Scattered Clouds
4:58 AM 51.3 °F - 40.1 °F 66% 29.88 in 10.0 mi East 9.2 mph - N/A   Mostly Cloudy
5:58 AM 51.4 °F - 41.7 °F 69% 29.89 in 10.0 mi East 8.1 mph - N/A   Mostly Cloudy
6:58 AM 51.6 °F - 42.8 °F 72% 29.89 in 10.0 mi East 10.4 mph - N/A   Mostly Cloudy
7:58 AM 53.2 °F - 44.2 °F 72% 29.91 in 10.0 mi East 10.4 mph - N/A   Overcast
8:58 AM 56.5 °F - 45.7 °F 67% 29.93 in 10.0 mi East 10.4 mph - N/A   Overcast
9:58 AM 63.0 °F - 49.6 °F 62% 29.92 in 10.0 mi ESE 11.5 mph - N/A   Scattered Clouds
10:58 AM 70.3 °F - 55.4 °F 59% 29.91 in 10.0 mi ESE 8.1 mph - N/A   Overcast
11:58 AM 73.9 °F - 58.1 °F 58% 29.91 in 10.0 mi Variable 3.5 mph - N/A   Overcast
12:58 PM 79.2 °F - 60.6 °F 53% 29.88 in 10.0 mi Variable 5.8 mph - N/A   Mostly Cloudy
1:58 PM 81.3 °F 82.2 °F 61.7 °F 51% 29.87 in 10.0 mi South 12.7 mph 19.6 mph N/A   Mostly Cloudy
2:58 PM 82.8 °F 83.4 °F 61.7 °F 49% 29.87 in 10.0 mi SSW 10.4 mph 16.1 mph N/A   Partly Cloudy
3:58 PM 83.7 °F 84.3 °F 62.2 °F 48% 29.85 in 10.0 mi SSW 15.0 mph 23.0 mph N/A   Scattered Clouds
4:58 PM 85.1 °F 85.2 °F 61.2 °F 44% 29.84 in 10.0 mi South 15.0 mph - N/A   Clear
5:58 PM 85.5 °F 85.7 °F 61.0 °F 44% 29.84 in 10.0 mi South 10.4 mph - N/A   Clear
6:58 PM 83.5 °F 83.1 °F 58.5 °F 42% 29.84 in 10.0 mi SSW 13.8 mph - N/A   Clear
7:58 PM 80.2 °F 80.5 °F 56.8 °F 45% 29.86 in 10.0 mi SSW 11.5 mph - N/A   Partly Cloudy
8:58 PM 75.0 °F - 57.6 °F 54% 29.88 in 10.0 mi SSW 11.5 mph - N/A   Clear
9:58 PM 74.8 °F - 57.2 °F 54% 29.89 in 10.0 mi SSW 10.4 mph - N/A   Partly Cloudy
10:58 PM 72.5 °F - 56.7 °F 57% 29.88 in 10.0 mi South 15.0 mph - N/A   Clear
11:58 PM 70.5 °F - 56.7 °F 61% 29.88 in 10.0 mi SSW 13.8 mph - N/A   Clear